This demonstration page uses our WeatherBlox Daily Observations layout. Learn more.

Left ArrowRight Arrow

41.12389, -100.76542

Hourly Observations for July 21, 2022

Temp ( °F °C ) Dew Point ( °F °C ) Humidity (%) Winds ( mph kmh ) Pressure ( in mb ) Visibility ( mi km ) Precip ( " mm )
12:53 am 00:53 Clear 77 25 55 12.8 47 47 S 10 17 29.88 1012 10 16 0.00 0.00
1:53 am 01:53 Clear 79 26.1 53 11.7 41 41 SSW 13 20 29.87 1012 10 16 0.00 0.00
2:53 am 02:53 Clear 78 25.6 52 11.1 40 40 S 7 11 29.87 1011 10 16 0.00 0.00
3:53 am 03:53 Clear 75 23.9 52 11.1 45 45 S 8 13 29.87 1012 10 16 0.00 0.00
4:53 am 04:53 Clear 71 21.7 53 11.7 53 53 NNW 8 13 29.90 1013 10 16 0.00 0.00
5:53 am 05:53 Clear 63 17.2 54 12.2 73 73 SSE 3 6 29.88 1012 10 16 0.00 0.00
6:53 am 06:53 Sunny 63 17.2 55 12.8 76 76 E 5 7 29.88 1012 10 16 0.00 0.00
7:53 am 07:53 Sunny 71 21.7 54 12.2 55 55 NE 6 9 29.91 1013 10 16 0.00 0.00
8:53 am 08:53 Sunny 75 23.9 55 12.8 50 50 SE 5 7 29.92 1013 10 16 0.00 0.00
9:53 am 09:53 Sunny 81 27.2 56 13.3 42 42 ESE 6 9 29.93 1014 10 16 0.00 0.00
10:53 am 10:53 Sunny 88 31.1 57 13.9 35 35 SE 7 11 29.91 1013 10 16 0.00 0.00
11:53 am 11:53 Sunny 91 32.8 57 13.9 32 32 SSE 7 11 29.91 1013 10 16 0.00 0.00
12:53 pm 12:53 Sunny 94 34.4 58 14.4 30 30 ESE 8 13 29.88 1012 10 16 0.00 0.00
1:53 pm 13:53 Sunny 97 36.1 58 14.4 27 27 SE 10 17 29.86 1011 10 16 0.00 0.00
2:53 pm 14:53 Sunny 98 36.7 60 15.6 28 28 SE 12 19 29.83 1010 10 16 0.00 0.00
3:53 pm 15:53 Sunny 100 37.8 62 16.7 29 29 ESE 17 28 29.80 1009 10 16 0.00 0.00
4:53 pm 16:53 Sunny 100 37.8 63 17.2 30 30 ESE 21 33 29.78 1008 10 16 0.00 0.00
5:53 pm 17:53 Sunny 95 35 66 18.9 39 39 ESE 15 24 29.75 1008 10 16 0.00 0.00
6:53 pm 18:53 Sunny 92 33.3 67 19.4 44 44 ESE 16 26 29.74 1007 10 16 0.00 0.00
7:40 pm 19:40 Partly Cloudy with Nearby Thunderstorms 89 31.7 68 20 50 50 ESE 15 24 29.59 1002 10 16 0.00 0.00
7:48 pm 19:48 Partly Cloudy with Thunderstorms 90 32 68 20 49 49 ESE 14 22 29.59 1002 10 16 0.00 0.00
7:53 pm 19:53 Mostly Cloudy with Thunderstorms 88 31.1 68 20 52 52 E 13 20 29.76 1008 10 16 0.00 0.00
8:03 pm 20:03 Windy with Storms Likely 82 27.8 66 18.9 58 58 N 23 37 29.74 1007 10 16 0.00 0.00
8:14 pm 20:14 Cloudy with Thunderstorms 72 22.2 64 17.8 76 76 NNW 45 72 29.83 1010 2 3 0.00 0.00
8:19 pm 20:19 Cloudy with Strong Thunderstorms 70 21.1 64 17.8 82 82 N 20 31 29.84 1011 1 1 0.13 3.30
8:30 pm 20:30 Cloudy with Strong Thunderstorms 70 21.1 64 17.8 82 82 ESE 16 26 29.82 1010 1 1 0.80 20.32
8:33 pm 20:33 Cloudy with Strong Thunderstorms 69 20.6 64 17.8 84 84 SSE 14 22 29.83 1010 1 2 0.92 23.37
8:36 pm 20:36 Cloudy with Strong Thunderstorms 71 21.7 64 17.8 79 79 SSE 13 20 29.81 1010 2 3 1.03 26.16
8:44 pm 20:44 Mostly Cloudy with Thunderstorms 74 23.3 64 17.8 71 71 SE 14 22 29.78 1008 10 16 1.06 26.92
8:50 pm 20:50 Mostly Cloudy with Nearby Thunderstorms 72 22 64 18 78 78 ESE 16 26 29.76 1008 10 16 1.06 26.92
8:53 pm 20:53 Partly Cloudy with Nearby Thunderstorms 72 22.2 65 18.3 79 79 SE 18 30 29.80 1009 10 16 1.06 26.92
9:08 pm 21:08 Sunny 71 21.7 65 18.3 81 81 ESE 18 30 29.77 1008 10 16 0.00 0.00
9:53 pm 21:53 Clear 71 21.7 66 18.9 84 84 ESE 21 33 29.82 1010 10 16 0.00 0.00
10:53 pm 22:53 Clear 70 21.1 65 18.3 84 84 E 5 7 29.85 1011 10 16 0.00 0.00
11:53 pm 23:53 Clear 73 22.8 62 16.7 69 69 undefined N/A 29.84 1010 10 16 0.00 0.00

Powered by AerisWeather